Flag for Netherlands Weather past 2 weeks in Almere, Netherlands

Now
63 °F

Sunny.


Feels Like: 63 °F
Forecast: 57 / 76 °F
Wind: 12 mph from Southwest

Location: Amsterdam Schiphol Airport

Current Time: Aug 4, 2015 at 10:53:02 PM

Latest Report: Aug 4, 2015 at 10:25 PM


Visibility: 10 mi

Pressure: 30.01 "Hg

Humidity: 64%

Dew point: 50 °F

Location of AlmereLocation

Historic Weather in Almere — Graph

°F

Almere temperature yesterday

Maximum temperature yesterday: 81 °F (at 12:25 PM)
Minimum temperature yesterday: 59 °F (at 4:55 AM)
Average temperature yesterday: 70 °F

Past Weeks' High & Low Weather Summary

 TemperatureHumidityPressure
High81 °F (Aug 3, 12:25 PM)100% (Jul 25, 1:55 PM)30.15 "Hg (Jul 25, 1:55 PM)
Low46 °F (Jul 31, 3:55 AM)38% (Aug 1, 12:25 PM)29.36 "Hg (Jul 25, 9:55 AM)
Average63 °F73%29.87 "Hg
* Reported Jul 20 9:25 PM — Aug 4 9:55 PM, Almere, Weather by CustomWeather, © 2015

Note: Actual official high and low records may vary slightly from our data, if they occured in-between our weather recording intervals... More about our weather records

Advertising

Almere weather history for previous 24 hours

 ConditionsComfort  
Time TempWeatherWind HumidityBarometerVisibility
9:55 PM
Tue, Aug 4
63 °FSunny.17 mph64%30.01 "Hg10 mi
9:25 PM64 °FSunny.18 mph60%30.01 "Hg10 mi
8:55 PM64 °FSunny.18 mph64%30.01 "Hg10 mi
8:25 PM64 °FPassing clouds.17 mph68%29.98 "HgN/A
7:55 PM66 °FPassing clouds.16 mph60%29.98 "HgN/A
7:25 PM66 °FPassing clouds.20 mph60%29.98 "HgN/A
6:55 PM68 °FPassing clouds.22 mph56%29.98 "HgN/A
6:25 PM68 °FPassing clouds.18 mph60%29.98 "HgN/A
5:55 PM68 °FPassing clouds.18 mph60%29.98 "HgN/A
5:25 PM68 °FPassing clouds.18 mph60%29.95 "HgN/A
4:55 PM68 °FPassing clouds.20 mph56%29.95 "HgN/A
4:25 PM68 °FPassing clouds.20 mph56%29.95 "HgN/A
3:55 PM68 °FPassing clouds.21 mph53%29.95 "HgN/A
3:25 PM68 °FPassing clouds.18 mph56%29.95 "HgN/A
2:55 PM68 °FPassing clouds.18 mph64%29.92 "HgN/A
2:25 PM68 °FPassing clouds.16 mph69%29.92 "HgN/A
1:55 PM66 °FPassing clouds.15 mph78%29.92 "HgN/A
1:25 PM64 °FBroken clouds.9 mph83%29.89 "HgN/A
12:55 PM63 °FBroken clouds.10 mph88%29.92 "HgN/A
12:25 PM63 °FPartly sunny.13 mph88%29.89 "HgN/A
11:55 AM63 °FSprinkles. Partly sunny.9 mph94%29.89 "HgN/A
11:25 AM63 °FSprinkles. Partly sunny.10 mph94%29.89 "HgN/A
10:55 AM63 °FSprinkles. Partly sunny.10 mph94%29.89 "HgN/A
10:25 AM63 °FSprinkles. Partly sunny.12 mph94%29.86 "HgN/A
9:55 AM64 °FSprinkles. Partly sunny.10 mph94%29.86 "HgN/A
9:25 AM66 °FSprinkles. Scattered clouds.7 mph88%29.86 "HgN/A
8:55 AM66 °FPassing clouds.6 mph94%29.83 "HgN/A
8:25 AM64 °FPassing clouds.9 mph94%29.83 "HgN/A
7:55 AM64 °FSprinkles. Passing clouds.10 mph94%29.80 "HgN/A
7:25 AM66 °FPassing clouds.14 mph88%29.77 "HgN/A
6:55 AM66 °FPassing clouds.13 mph88%29.77 "HgN/A
6:25 AM64 °FPassing clouds.16 mph94%29.80 "HgN/A
5:55 AM64 °FRain showers. Passing clouds.5 mph94%29.89 "Hg4 mi
5:25 AM64 °FThunderstorms. Passing clouds.5 mph94%29.83 "Hg6 mi
4:55 AM64 °FPassing clouds.5 mph94%29.83 "HgN/A
4:25 AM64 °FPassing clouds.7 mph94%29.83 "HgN/A
3:55 AM64 °FSprinkles. Passing clouds.3 mph94%29.83 "HgN/A
3:25 AM64 °FSprinkles. Passing clouds.3 mph94%29.86 "HgN/A
2:55 AM64 °FSprinkles. Passing clouds.3 mph88%29.89 "HgN/A
2:25 AM64 °FPassing clouds.3 mph88%29.86 "HgN/A
1:55 AM64 °FPassing clouds.3 mph88%29.86 "HgN/A
1:25 AM64 °FClear.2 mph83%29.86 "Hg10 mi
12:55 AM63 °FClear.2 mph88%29.89 "Hg10 mi
12:25 AM61 °FClear.2 mph94%29.89 "Hg10 mi
11:55 PM
Mon, Aug 3
63 °FClear.3 mph88%29.89 "Hg10 mi
11:25 PM64 °FClear.3 mph83%29.89 "Hg10 mi
10:55 PM66 °FClear.3 mph78%29.89 "Hg10 mi
10:25 PM64 °FSunny.2 mph83%29.89 "Hg10 mi
Weather by CustomWeather, © 2015

See weather overviewHow to use our weather pages